Probability
68 71 90 97 94 65 3 0 0 0 0 0 0 0 3 6 10 10 23 26 26 32 26 42 45 48 45 45 48 55 48 35 39 39 39 35 42 45 45 45 45 48 45 45 45 48 48 45 48
68 68 84 97 65 3 0 0 0 3 0 0 0 0 0 6 16 19 23 23 26 23 26 23 42 39 48 45 45 39 32 29 29 29 26 29 32 32 32 35 32 35 39 42 42 45 42 42 42
58 61 77 81 16 0 0 0 0 0 0 3 3 3 0 6 6 19 23 23 19 23 23 23 35 35 32 39 29 26 19 19 19 16 13 13 23 23 26 26 26 32 29 29 32 35 42 39 35
58 81 61 29 0 0 0 3 0 0 0 3 3 3 3 6 16 13 26 16 19 19 19 23 32 29 26 32 32 29 23 19 16 13 13 13 13 13 19 13 13 19 23 16 19 23 23 19 23
55 61 26 3 0 0 3 3 3 0 0 3 6 6 13 10 16 19 19 19 16 16 16 19 35 32 32 35 32 19 16 16 16 16 16 19 16 16 10 10 10 13 16 16 19 19 16 19 23
65 42 6 3 0 3 3 3 3 0 0 0 3 6 10 13 16 19 19 16 19 16 16 19 35 35 35 32 29 23 19 16 16 13 16 10 6 6 6 10 13 13 16 16 19 16 16 16 23
52 39 0 0 0 6 3 3 0 3 0 3 0 3 13 19 23 19 13 16 16 16 16 16 23 23 32 29 29 19 19 19 16 10 3 3 6 6 6 3 3 0 3 6 13 16 16 16 16
45 39 0 0 6 3 6 0 0 0 0 0 0 6 13 16 19 16 16 16 16 13 16 16 16 13 13 23 26 19 16 16 13 6 10 10 10 3 6 0 0 0 0 0 6 10 13 6 10
23 13 0 0 3 3 10 0 0 3 0 3 6 10 13 16 16 16 16 16 13 10 13 16 16 10 6 10 16 19 19 16 10 10 10 13 3 0 0 0 3 0 0 0 3 3 6 6 0
23 13 0 3 3 3 10 3 0 3 0 10 10 16 10 16 16 13 10 10 10 6 10 10 10 13 6 3 3 3 3 3 3 3 3 3 0 0 0 3 6 3 3 3 3 6 10 3 0
3 3 3 10 3 0 6 6 0 0 0 0 10 16 16 13 10 10 10 10 6 3 6 0 3 6 3 3 3 3 3 3 3 0 0 0 0 0 0 0 0 0 0 0 0 0 0 0 0
3 0 3 10 0 0 3 3 3 6 0 3 6 16 16 13 13 10 10 6 3 3 3 3 3 0 0 3 3 0 0 0 0 0 0 0 0 0 0 0 0 0 0 0 0 0 0 0 0
0 3 3 3 0 0 3 3 0 6 0 3 3 10 16 13 13 10 6 6 3 3 3 3 3 3 3 3 3 0 3 0 3 3 3 0 0 0 0 0 0 0 0 0 0 0 0 0 0
0 3 3 3 0 0 0 0 3 6 3 3 10 10 16 13 13 10 6 6 3 3 3 3 3 3 3 6 3 3 3 6 3 3 3 3 0 0 0 0 0 0 0 0 0 0 0 0 0
0 3 3 0 0 0 0 0 3 3 6 6 10 10 13 13 13 10 3 3 3 3 3 3 3 3 6 6 3 3 6 3 3 3 0 0 0 0 0 0 0 0 0 0 0 0 0 0 0
0 0 0 0 0 0 0 0 3 3 6 6 10 13 13 13 13 6 3 3 3 3 3 3 3 3 6 6 6 3 3 3 0 0 0 0 0 0 0 0 0 0 0 0 0 0 0 0 0
0 0 0 0 0 0 0 0 0 10 6 10 10 13 13 13 13 6 6 6 3 3 3 3 3 3 6 6 6 6 3 0 0 0 0 0 0 0 0 0 0 0 0 0 0 0 0 0 0
0 0 0 0 0 0 0 0 0 6 6 6 10 13 13 16 6 6 6 6 6 3 3 3 3 6 3 3 6 6 0 0 0 0 0 0 0 0 0 0 0 0 0 0 0 0 0 0 0
0 0 0 0 0 0 0 0 3 6 6 6 13 6 10 16 13 6 6 6 6 10 10 10 6 3 3 3 3 3 3 0 0 0 0 0 0 0 0 0 0 0 0 0 0 0 0 0 0
0 0 0 0 0 0 0 0 0 3 3 3 13 3 6 16 13 3 3 6 6 10 10 6 6 6 6 6 6 3 3 0 0 0 0 0 0 0 0 0 0 0 0 0 0 0 0 0 0
0 0 0 0 0 0 0 3 0 3 3 3 3 6 3 10 6 3 3 3 3 3 6 6 6 6 6 3 3 0 0 0 0 0 0 0 0 0 0 0 0 0 0 0 0 0 0 0 0
0 0 0 0 0 0 0 0 0 0 0 0 0 6 10 6 6 6 6 6 3 3 6 6 6 3 3 3 3 0 0 0 0 0 0 0 0 0 0 0 0 0 0 0 0 0 0 0 0
0 0 0 0 0 0 0 0 3 0 0 0 3 10 10 6 6 6 6 3 3 6 6 6 3 3 3 3 3 3 3 0 0 0 0 0 0 0 0 0 0 0 0 0 0 0 3 3 3
0 0 0 0 0 0 0 0 3 0 0 0 0 6 6 6 3 6 6 3 3 3 3 3 3 0 0 0 3 3 3 3 0 0 0 0 0 0 0 0 0 0 0 0 0 0 3 3 0
0 0 0 0 0 0 0 0 0 3 0 0 0 3 3 10 10 13 6 3 6 3 3 3 0 0 0 0 0 3 3 3 3 0 0 0 0 0 0 0 0 0 0 0 0 0 0 3 3
0 0 0 0 0 0 0 0 0 0 0 0 0 0 6 6 10 13 10 10 6 6 3 0 0 0 0 0 0 0 0 0 0 0 0 0 0 0 0 0 0 0 0 0 0 0 0 0 0
0 0 0 0 0 0 0 0 0 0 0 0 0 0 3 6 6 13 13 10 6 6 6 0 0 0 0 0 0 0 0 0 0 0 0 0 0 0 0 0 0 3 0 0 0 0 0 0 0
0 0 0 0 0 0 0 0 0 0 0 0 0 0 3 3 3 6 13 13 6 6 3 3 0 0 0 0 0 0 0 0 0 0 0 0 0 0 0 0 0 0 3 3 3 3 3 0 0
0 0 0 0 0 0 0 0 0 0 0 0 0 3 3 3 3 6 6 10 10 13 3 0 0 0 0 0 0 0 0 0 0 0 0 0 0 0 0 0 0 0 0 3 3 3 3 3 0
0 0 0 0 0 0 0 0 0 0 0 0 0 3 3 3 6 6 6 10 10 10 3 0 0 0 0 0 0 0 0 0 0 0 0 0 0 0 0 0 0 0 0 0 0 0 0 0 0
Height
5864 5864 5865 5866 5867 5867 5866 5867 5866 5867 5867 5868 5869 5870 5871 5873 5875 5877 5876 5876 5877 5879 5880 5881 5882 5883 5884 5885 5886 5886 5887 5887 5888 5888 5888 5888 5888 5888 5888 5888 5888 5887 5887 5887 5887 5887 5886 5886 5886
5862 5863 5864 5865 5865 5865 5866 5865 5865 5866 5867 5867 5868 5870 5871 5872 5873 5874 5874 5876 5877 5879 5880 5881 5882 5883 5884 5885 5886 5887 5887 5888 5888 5888 5889 5889 5888 5888 5888 5888 5888 5887 5887 5887 5887 5886 5886 5886 5886
5860 5861 5863 5863 5863 5863 5864 5864 5865 5865 5866 5867 5868 5870 5871 5872 5873 5873 5874 5876 5877 5879 5880 5881 5882 5883 5884 5885 5886 5887 5888 5888 5889 5889 5889 5889 5889 5889 5888 5888 5888 5888 5887 5887 5887 5886 5886 5886 5885
5858 5860 5861 5862 5861 5862 5862 5863 5864 5865 5866 5866 5868 5869 5870 5871 5872 5873 5874 5875 5877 5878 5880 5881 5883 5884 5885 5886 5887 5887 5888 5889 5889 5889 5889 5889 5889 5889 5888 5888 5888 5887 5887 5887 5886 5886 5886 5885 5885
5856 5858 5859 5859 5860 5860 5861 5862 5863 5864 5865 5866 5868 5869 5869 5871 5872 5873 5874 5875 5877 5879 5880 5881 5883 5884 5885 5886 5887 5888 5888 5889 5889 5889 5889 5889 5888 5888 5888 5888 5888 5887 5887 5886 5886 5885 5885 5884 5884
5854 5855 5857 5857 5858 5859 5860 5861 5862 5863 5864 5865 5867 5868 5869 5871 5872 5873 5874 5875 5877 5879 5880 5881 5883 5884 5885 5886 5887 5888 5888 5889 5889 5889 5889 5889 5888 5888 5888 5888 5887 5887 5886 5886 5885 5885 5884 5884 5883
5853 5853 5854 5855 5857 5858 5859 5860 5861 5862 5863 5865 5866 5868 5869 5870 5872 5873 5874 5876 5877 5879 5880 5882 5883 5885 5886 5886 5887 5888 5888 5889 5889 5889 5889 5889 5888 5888 5888 5887 5887 5886 5885 5885 5884 5884 5883 5883 5882
5850 5852 5853 5854 5855 5857 5858 5859 5860 5862 5863 5864 5866 5867 5868 5870 5872 5873 5874 5876 5878 5879 5881 5882 5884 5885 5886 5886 5887 5888 5888 5889 5889 5889 5889 5888 5888 5888 5887 5887 5886 5885 5885 5884 5883 5882 5882 5881 5881
5848 5851 5851 5852 5854 5856 5857 5858 5860 5861 5862 5864 5865 5867 5868 5870 5871 5873 5875 5877 5878 5879 5881 5882 5883 5885 5886 5886 5887 5888 5888 5888 5888 5888 5888 5888 5888 5887 5887 5886 5885 5884 5884 5883 5882 5881 5880 5880 5879
5847 5849 5850 5851 5853 5855 5856 5858 5859 5861 5862 5864 5865 5866 5868 5870 5871 5873 5875 5877 5878 5879 5881 5882 5884 5884 5885 5886 5887 5888 5888 5888 5888 5888 5888 5888 5887 5887 5886 5885 5884 5883 5883 5882 5881 5880 5879 5878 5877
5846 5847 5849 5850 5852 5854 5856 5857 5859 5861 5862 5864 5865 5867 5868 5870 5872 5873 5875 5876 5878 5879 5881 5882 5883 5884 5885 5886 5887 5888 5888 5888 5888 5888 5888 5887 5887 5886 5885 5884 5883 5883 5882 5880 5879 5878 5877 5876 5875
5845 5846 5848 5850 5852 5854 5856 5858 5859 5860 5862 5864 5865 5867 5868 5870 5872 5873 5875 5876 5878 5880 5881 5882 5883 5885 5886 5886 5887 5887 5888 5888 5887 5887 5887 5887 5886 5885 5885 5884 5883 5882 5880 5879 5878 5877 5875 5874 5873
5845 5846 5848 5850 5852 5854 5856 5857 5859 5860 5862 5863 5865 5867 5869 5870 5872 5873 5875 5877 5878 5879 5881 5882 5883 5884 5885 5886 5887 5887 5887 5887 5887 5887 5887 5886 5885 5885 5884 5883 5881 5880 5879 5878 5876 5875 5874 5872 5871
5845 5846 5848 5850 5852 5854 5856 5857 5859 5860 5861 5863 5865 5867 5869 5870 5872 5873 5875 5877 5878 5879 5881 5882 5883 5884 5885 5886 5886 5887 5887 5887 5886 5886 5886 5885 5884 5883 5883 5881 5880 5879 5877 5876 5875 5873 5872 5871 5870
5845 5847 5849 5850 5852 5853 5855 5857 5859 5860 5862 5863 5865 5867 5868 5870 5872 5873 5875 5877 5878 5880 5881 5882 5883 5884 5885 5885 5886 5886 5886 5886 5886 5885 5885 5884 5883 5882 5881 5880 5879 5877 5876 5874 5873 5872 5870 5869 5868
5844 5847 5849 5850 5852 5853 5856 5857 5858 5860 5862 5863 5865 5867 5868 5870 5871 5873 5875 5876 5878 5879 5881 5882 5883 5884 5884 5885 5885 5886 5886 5886 5885 5885 5884 5883 5882 5881 5880 5879 5878 5876 5874 5873 5871 5870 5868 5867 5866
5844 5846 5848 5850 5852 5853 5856 5856 5857 5859 5861 5863 5864 5866 5868 5869 5871 5873 5874 5876 5878 5879 5880 5881 5882 5883 5884 5884 5885 5885 5885 5885 5885 5884 5883 5883 5882 5880 5879 5878 5876 5875 5873 5871 5869 5868 5866 5865 5863
5844 5846 5848 5849 5851 5853 5855 5856 5857 5858 5861 5862 5864 5865 5867 5869 5870 5872 5874 5875 5877 5878 5880 5881 5882 5883 5883 5884 5885 5885 5885 5884 5884 5884 5883 5882 5881 5880 5878 5877 5875 5873 5871 5870 5868 5866 5864 5863 5861
5844 5846 5847 5849 5851 5853 5854 5856 5857 5859 5861 5862 5863 5865 5867 5868 5870 5872 5873 5875 5876 5878 5879 5880 5881 5882 5883 5883 5884 5884 5884 5884 5883 5883 5882 5881 5880 5879 5877 5876 5874 5872 5870 5868 5866 5864 5863 5861 5859
5844 5846 5847 5849 5851 5853 5854 5856 5857 5859 5860 5862 5863 5865 5866 5868 5869 5871 5873 5874 5875 5877 5878 5879 5880 5881 5882 5883 5883 5883 5883 5883 5883 5882 5881 5880 5879 5878 5876 5875 5873 5871 5869 5867 5865 5863 5861 5859 5858
5844 5845 5847 5849 5851 5852 5854 5856 5857 5858 5860 5861 5862 5864 5866 5867 5869 5870 5872 5873 5875 5876 5877 5878 5879 5880 5881 5881 5882 5882 5882 5882 5881 5881 5880 5879 5878 5877 5875 5873 5872 5870 5868 5866 5864 5862 5860 5858 5856
5843 5845 5847 5849 5851 5852 5854 5856 5857 5857 5859 5860 5862 5863 5865 5866 5868 5869 5871 5872 5874 5875 5876 5877 5878 5879 5880 5880 5881 5881 5881 5881 5881 5880 5879 5878 5877 5876 5874 5873 5871 5869 5867 5865 5863 5861 5859 5857 5855
5843 5845 5847 5849 5850 5852 5853 5855 5856 5857 5858 5859 5861 5862 5864 5865 5867 5868 5870 5871 5873 5874 5875 5876 5877 5878 5879 5879 5880 5880 5880 5880 5880 5879 5879 5878 5877 5875 5874 5872 5870 5868 5866 5864 5862 5860 5858 5856 5854
5843 5846 5847 5849 5850 5852 5853 5854 5855 5856 5857 5858 5860 5861 5863 5865 5866 5867 5869 5870 5872 5873 5874 5875 5876 5877 5878 5878 5879 5879 5879 5879 5879 5879 5878 5877 5876 5875 5873 5871 5869 5867 5865 5863 5861 5859 5857 5855 5853
5843 5845 5847 5848 5849 5851 5852 5853 5855 5855 5856 5857 5858 5860 5862 5863 5865 5866 5868 5869 5871 5872 5873 5874 5875 5876 5877 5877 5878 5878 5878 5878 5878 5878 5877 5876 5875 5874 5872 5871 5869 5867 5865 5863 5860 5858 5856 5854 5852
5842 5844 5847 5848 5849 5851 5851 5852 5854 5854 5855 5856 5857 5859 5860 5862 5864 5865 5867 5868 5870 5871 5872 5873 5874 5875 5876 5876 5877 5877 5877 5877 5877 5877 5876 5875 5874 5873 5872 5870 5868 5866 5864 5862 5860 5858 5855 5853 5851
5841 5843 5845 5847 5848 5849 5850 5851 5852 5853 5854 5855 5856 5858 5859 5861 5862 5864 5866 5867 5868 5870 5871 5872 5873 5874 5875 5875 5875 5876 5876 5876 5876 5876 5875 5874 5873 5872 5871 5869 5868 5866 5864 5861 5859 5857 5855 5852 5850
5840 5842 5844 5845 5847 5848 5849 5850 5850 5851 5853 5854 5855 5856 5858 5859 5861 5863 5864 5866 5867 5868 5870 5871 5872 5873 5873 5874 5874 5874 5874 5875 5875 5874 5874 5873 5872 5871 5870 5868 5867 5865 5863 5861 5858 5856 5854 5852 5849
5839 5841 5842 5844 5845 5847 5848 5851 5849 5850 5851 5852 5853 5855 5856 5858 5860 5861 5863 5864 5866 5867 5868 5870 5871 5871 5872 5872 5873 5873 5873 5873 5873 5873 5873 5872 5871 5870 5869 5867 5866 5864 5862 5859 5857 5855 5853 5850 5848
5838 5839 5841 5843 5845 5846 5846 5850 5848 5849 5850 5851 5852 5853 5855 5857 5858 5860 5861 5862 5864 5865 5867 5868 5869 5870 5870 5871 5871 5872 5872 5872 5872 5872 5871 5870 5870 5868 5867 5866 5864 5862 5860 5858 5856 5853 5851 5849 5847
Wind_Speed
7 7 7 6 5 5 5 5 6 6 6 7 7 7 7 7 7 7 7 7 7 8 7 6 5 5 5 5 5 3 2 2 2 3 2 2 2 2 2 2 2 2 2 2 2 2 3 3 3
8 8 8 6 6 6 6 6 6 6 7 7 8 8 8 7 7 7 7 7 7 8 8 7 6 5 5 5 4 3 2 2 2 2 2 2 2 3 3 3 3 3 3 2 3 3 3 3 3
10 9 9 8 7 7 7 7 6 6 7 7 8 8 7 7 7 7 7 7 7 8 8 7 6 6 6 5 4 3 2 2 2 1 2 2 3 3 3 3 3 3 3 4 4 4 4 4 4
10 10 10 9 8 8 8 8 7 7 7 8 8 8 7 7 8 7 7 7 8 8 7 6 6 5 5 4 4 3 2 2 1 1 2 2 3 3 3 4 4 4 4 4 4 4 4 4 5
11 11 10 10 9 9 9 9 8 7 8 8 8 8 8 8 8 8 7 8 8 8 8 6 6 5 4 4 3 2 2 1 1 1 2 2 3 3 3 4 4 5 5 5 5 5 5 5 5
11 11 11 10 10 10 9 9 9 8 7 8 8 8 9 8 8 8 8 8 8 8 7 7 6 4 4 3 3 2 2 1 1 2 2 3 3 3 3 4 4 5 6 6 6 6 6 6 6
11 11 11 11 10 10 9 9 9 8 7 8 8 9 10 9 9 8 7 8 8 8 7 6 5 4 3 3 3 2 1 0 1 2 3 3 3 3 4 4 5 5 6 6 6 6 7 7 7
11 11 11 11 11 10 9 9 9 8 7 8 9 9 10 9 9 9 7 8 8 7 7 6 5 4 3 3 2 1 1 1 2 3 3 3 4 4 5 5 6 6 6 7 7 7 8 8 8
9 10 10 11 11 10 9 8 8 8 7 7 8 10 10 9 9 9 8 7 7 7 6 6 5 4 3 3 2 1 1 2 2 3 3 4 4 5 5 6 6 7 7 8 8 8 8 9 9
9 9 10 9 9 9 8 8 8 8 8 8 8 9 9 9 8 8 7 7 8 7 6 5 4 4 3 2 2 1 1 2 2 3 4 4 5 5 6 6 7 8 8 8 8 8 9 9 10
9 9 9 9 8 8 7 7 8 8 8 7 8 8 8 8 8 7 7 7 7 7 6 5 5 4 3 2 1 1 1 2 3 4 4 5 5 6 6 7 8 8 9 9 9 9 9 9 9
9 8 8 8 8 7 8 8 7 7 8 8 7 8 8 8 8 8 7 6 6 7 5 4 4 4 2 2 1 0 1 2 3 4 4 4 5 6 7 8 8 9 9 9 10 10 10 9 9
7 7 7 8 8 8 7 7 7 8 8 8 7 7 7 8 8 8 7 6 5 6 5 5 4 3 2 1 0 1 2 2 3 4 4 5 6 7 8 8 9 9 10 10 10 10 10 10 10
8 7 7 7 8 7 7 7 7 8 7 7 7 7 8 7 8 7 7 6 5 5 5 5 4 3 2 1 1 1 2 3 4 4 5 6 7 8 8 9 10 10 10 10 10 10 10 10 10
8 8 7 7 7 7 7 7 7 8 8 8 7 7 7 7 7 7 7 6 5 5 5 4 3 3 2 1 1 2 2 3 4 5 6 7 7 8 9 10 11 11 11 11 11 11 11 11 11
8 7 7 7 7 6 7 8 8 9 9 8 8 8 8 8 7 7 7 6 6 5 5 4 3 2 2 1 2 2 3 4 5 6 6 7 8 9 9 10 11 11 11 11 12 12 12 12 11
7 7 8 8 7 7 7 7 8 9 9 8 8 8 8 8 8 7 7 7 6 6 5 4 3 2 2 2 2 3 3 4 5 6 7 8 9 9 10 11 11 11 12 12 12 12 12 12 12
7 7 7 8 7 8 8 6 6 7 8 7 7 8 8 8 7 7 7 7 7 6 4 4 3 3 3 3 3 3 4 5 6 7 7 8 9 10 11 11 12 12 12 12 12 12 12 12 12
8 7 6 7 7 7 7 7 6 6 7 8 8 8 8 8 8 7 7 7 7 6 5 5 4 4 4 4 4 4 5 6 6 7 8 9 10 10 11 11 12 12 12 12 12 12 12 12 11
8 7 7 7 7 7 7 6 6 6 7 8 8 8 8 8 8 8 8 7 7 6 5 5 5 5 5 5 5 5 5 6 6 7 8 9 10 10 11 11 12 12 12 12 12 12 12 12 11
9 8 7 6 6 7 6 6 6 6 7 8 8 9 9 9 9 8 8 7 6 6 5 5 5 5 5 5 5 5 5 6 6 7 8 9 9 10 10 11 12 12 12 12 12 12 12 12 11
9 8 8 6 6 6 6 6 7 7 7 8 9 9 8 8 9 8 8 8 7 6 6 6 6 6 5 5 5 5 5 5 6 7 8 8 8 9 10 11 11 12 12 12 11 12 12 12 11
9 9 8 7 6 6 6 6 7 8 8 8 9 9 9 9 9 8 8 7 7 7 6 6 6 5 5 5 5 4 4 5 5 6 7 7 8 9 10 10 11 12 12 12 11 12 12 12 11
10 9 8 7 7 6 6 7 8 9 9 9 10 10 9 9 9 8 7 7 7 7 6 6 5 5 5 5 5 4 4 5 5 5 6 7 7 8 9 10 11 11 12 12 12 12 12 12 11
11 10 9 7 7 6 7 9 9 10 9 9 9 10 10 10 9 9 8 7 7 7 6 6 6 5 5 5 5 5 5 5 5 6 6 7 7 8 9 10 10 11 12 12 12 13 12 12 11
11 11 10 8 7 7 8 10 10 9 9 9 10 10 10 10 9 9 8 7 8 7 7 6 6 6 6 6 6 5 6 6 5 6 7 7 7 8 9 10 10 11 12 12 13 13 13 12 12
11 11 10 8 7 6 7 9 9 9 9 9 10 10 10 10 9 9 8 7 8 8 7 6 6 6 6 5 5 5 5 5 6 6 6 6 7 8 8 9 10 11 12 13 13 13 13 12 12
11 11 10 8 7 7 6 7 8 8 9 9 10 10 11 11 10 9 9 8 9 9 8 7 7 7 6 5 5 5 6 6 6 6 7 7 7 8 9 10 11 12 12 13 13 13 13 13 13
11 10 9 8 7 6 7 8 10 8 9 10 10 10 10 11 11 10 10 9 9 9 9 9 8 7 7 6 6 6 6 7 7 7 7 7 7 8 10 11 11 12 13 13 13 13 13 13 13
10 11 10 10 9 9 9 9 10 9 9 9 10 10 10 11 11 11 11 10 10 9 9 9 8 8 8 8 7 7 7 7 7 8 7 8 8 10 11 12 12 12 13 14 13 14 14 14 13
Wind_Direction
256 254 256 254 254 249 246 244 237 228 225 221 220 217 207 207 206 205 199 199 199 194 185 184 178 176 167 153 146 149 130 100 98 95 83 77 54 48 39 30 29 18 5 1 359 348 335 324 317
250 249 248 245 246 242 237 240 240 227 226 222 219 213 208 208 208 203 196 196 191 190 183 184 184 176 164 155 158 155 131 103 93 75 59 42 29 28 27 24 26 21 10 4 358 348 342 333 321
246 243 241 237 236 237 235 239 239 235 226 223 216 209 209 208 210 208 203 197 188 183 183 179 172 167 156 149 146 137 122 106 92 61 40 27 19 18 16 15 20 17 9 359 349 342 333 328 321
241 237 234 232 233 237 238 240 241 233 226 220 215 211 210 209 209 206 205 199 189 182 180 173 165 162 154 149 145 135 130 117 89 55 28 20 19 19 13 9 9 2 356 352 347 339 330 324 320
235 232 231 229 231 240 242 240 237 232 225 219 218 212 211 209 206 208 205 194 188 184 179 171 162 160 159 154 139 132 121 104 83 50 17 9 5 6 10 5 358 350 346 342 339 335 329 322 316
231 228 226 225 231 240 242 236 233 232 224 218 214 211 207 204 201 198 196 186 180 180 175 169 163 153 149 146 137 122 106 88 59 35 14 7 5 1 358 354 349 344 339 332 327 325 322 316 312
229 226 223 223 229 237 239 235 232 230 228 224 211 207 197 194 195 189 188 186 183 179 173 162 159 163 162 161 146 135 114 49 16 6 2 2 359 355 352 349 344 340 336 330 324 320 317 313 309
225 223 224 224 228 233 232 234 233 229 228 226 211 197 191 190 193 189 185 185 188 183 175 170 167 169 173 160 143 129 59 10 353 346 346 347 347 342 340 339 336 334 333 330 324 317 312 308 305
219 217 220 223 226 227 231 232 227 223 222 217 203 193 194 193 193 189 186 182 184 185 179 176 174 174 166 153 149 128 38 7 353 346 341 340 340 334 332 332 332 331 330 327 322 316 310 306 302
217 216 218 223 223 217 218 220 218 212 209 209 197 188 189 192 196 191 187 187 191 190 185 183 176 166 158 149 154 149 17 358 349 342 340 340 340 337 333 332 332 331 329 326 321 315 311 307 302
216 218 219 214 207 205 209 208 210 212 202 199 195 187 188 188 189 186 184 185 192 191 184 177 167 159 159 159 145 105 7 354 351 347 344 342 342 340 336 333 330 329 326 325 321 317 312 307 304
212 212 215 203 203 202 202 202 208 210 201 193 199 194 193 192 193 190 184 183 192 197 188 182 173 168 167 161 146 48 356 346 346 345 343 344 343 340 337 333 329 327 325 324 322 320 314 310 308
206 206 202 199 199 199 203 202 205 204 202 197 198 196 197 198 193 193 191 192 188 187 186 185 175 178 183 171 192 335 344 346 339 336 332 332 334 331 331 331 330 328 326 326 324 322 319 314 310
196 201 198 194 194 199 199 196 203 202 204 201 199 206 207 203 198 198 196 198 194 189 192 187 190 202 206 233 285 323 333 335 333 333 329 329 331 331 328 329 330 329 327 325 325 324 322 318 313
194 198 194 193 203 208 206 206 206 206 208 201 203 207 206 205 203 207 207 205 202 196 197 201 207 212 222 253 293 306 316 323 328 329 331 331 332 333 330 330 331 329 328 327 326 325 323 318 314
191 196 195 193 199 199 203 203 208 209 206 205 211 216 215 216 211 211 209 209 207 204 204 207 211 226 241 270 304 314 317 320 326 330 333 336 335 334 332 331 331 331 330 330 328 326 323 319 314
192 193 197 200 201 204 206 212 213 207 209 210 212 218 215 217 211 209 208 212 212 210 211 217 227 240 266 288 302 311 320 326 327 328 330 333 334 334 333 332 330 330 330 329 328 326 324 321 317
193 196 199 201 210 211 213 216 220 206 204 211 211 218 215 211 210 209 211 216 218 216 219 225 236 249 267 289 298 305 313 317 321 324 328 331 331 332 333 333 332 332 333 332 332 329 326 323 320
191 201 201 202 207 208 212 217 217 215 211 215 218 222 215 211 215 210 215 220 224 228 234 234 239 254 268 284 290 298 307 313 318 323 327 329 331 333 334 335 335 336 336 334 333 333 332 331 326
188 196 201 200 204 211 212 215 219 227 222 218 220 221 222 216 213 210 215 218 222 228 235 240 243 255 268 277 285 295 304 314 321 326 329 331 332 334 336 337 339 339 337 334 333 334 335 334 331
195 200 202 199 202 211 218 218 223 232 234 229 227 224 224 220 215 214 218 220 224 225 233 242 251 257 268 275 287 295 303 313 320 326 329 331 332 334 336 338 341 340 338 337 336 336 336 337 336
197 203 201 201 205 215 219 232 231 240 237 232 231 230 227 221 216 215 221 224 221 225 232 245 252 260 266 274 282 291 302 312 320 326 329 333 336 338 340 342 342 341 340 340 340 340 339 339 337
199 201 202 205 211 214 231 239 245 237 244 237 230 228 223 219 222 226 226 220 219 226 233 243 249 257 263 272 279 288 301 310 317 323 331 339 342 342 343 344 345 346 347 345 341 340 340 339 338
200 200 202 204 211 224 233 243 245 242 243 238 231 227 222 220 223 229 228 220 220 227 237 241 248 253 261 269 275 283 293 301 310 320 328 335 339 342 346 348 348 350 351 351 348 344 341 341 340
202 202 204 210 222 237 242 250 252 251 246 243 240 230 225 223 228 228 227 222 224 229 239 242 244 252 260 266 274 281 288 295 305 315 321 330 337 342 346 349 348 349 351 350 349 348 347 345 344
204 204 206 216 224 237 244 254 253 249 245 244 242 232 227 227 227 223 224 224 224 233 243 246 246 252 260 265 271 281 288 293 301 309 317 326 334 340 345 348 349 351 352 351 350 349 350 350 347
204 206 209 218 221 240 253 255 251 245 249 247 241 234 229 224 224 224 226 227 226 234 242 247 247 251 260 266 272 281 289 293 296 305 314 320 329 338 346 349 349 350 349 348 348 350 350 351 349
216 212 208 216 228 229 244 268 260 252 257 252 244 236 229 225 223 225 232 232 231 235 240 243 246 250 255 264 274 282 286 290 292 299 309 316 323 332 339 342 344 345 345 346 347 348 348 348 347
220 221 221 216 222 236 241 245 258 262 260 253 244 235 230 227 226 229 232 234 234 234 237 242 247 249 253 262 271 277 281 284 287 295 304 310 318 326 331 334 338 340 341 343 345 345 343 343 342
222 220 218 217 219 230 247 258 262 264 256 249 242 236 231 232 230 230 233 234 233 235 237 239 248 252 257 263 270 275 280 282 287 293 301 307 315 322 328 332 334 336 338 339 340 340 340 340 340